Location: Black Swamp Observatory
(41.3920°N, 84.1250°W)
Time: 02:11:12
(UTC-04:00)

Vanguard 2 - Visible Passes

Search period start: 26 June 2022 00:00
Search period end: 06 July 2022 00:00
Orbit: 552 x 2934 km, 32.9° (Epoch: 25 June)

Date Brightness Start Highest point End Pass type
(mag) Time Alt. Az. Time Alt. Az. Time Alt. Az.
26 Jun 8.0 23:03:23 10° WSW 23:07:48 28° S 23:08:13 27° S visible
27 Jun 8.1 23:20:31 10° WSW 23:24:45 29° S 23:24:45 29° S visible
28 Jun 8.4 23:37:45 10° WSW 23:41:12 26° SSW 23:41:12 26° SSW visible
29 Jun 8.5 21:45:13 10° WSW 21:51:25 33° S 21:55:43 10° ESE visible
29 Jun 8.8 23:55:05 10° WSW 23:57:36 21° SW 23:57:36 21° SW visible
30 Jun 8.4 22:02:21 10° WSW 22:08:34 35° S 22:12:36 12° ESE visible
01 Jul 9.3 00:12:34 10° WSW 00:13:57 15° SW 00:13:57 15° SW visible
01 Jul 8.4 22:19:35 10° WSW 22:25:42 35° S 22:28:55 16° SE visible
02 Jul 9.7 00:30:16 10° WSW 00:30:17 10° WSW 00:30:17 10° WSW visible
02 Jul 8.5 22:36:54 10° WSW 22:42:47 33° SSW 22:45:14 21° SE visible
03 Jul 8.5 22:54:18 10° WSW 22:59:50 29° SSW 23:01:30 23° SSE visible
04 Jul 8.7 23:11:50 10° WSW 23:16:47 24° SSW 23:17:47 22° S visible
05 Jul 9.1 23:29:34 10° WSW 23:33:40 18° SSW 23:34:02 18° SSW visible
